Year,Month,Day,Hour,Minute,Value (Times are PST for temperature in C)
2007,07,10,00,00,13.20
2007,07,10,00,01,13.20
2007,07,10,00,02,13.30
2007,07,10,00,03,13.30
2007,07,10,00,04,13.30
2007,07,10,00,05,13.30
2007,07,10,00,06,13.30
2007,07,10,00,07,13.30
2007,07,10,00,08,13.30
2007,07,10,00,09,13.30
2007,07,10,00,10,13.30
2007,07,10,00,11,13.20
2007,07,10,00,12,13.20
2007,07,10,00,13,13.20
2007,07,10,00,14,13.20
2007,07,10,00,15,13.20
2007,07,10,00,16,13.20
2007,07,10,00,17,13.10
2007,07,10,00,18,13.10
2007,07,10,00,19,13.10
2007,07,10,00,20,13.20
2007,07,10,00,21,13.20
2007,07,10,00,22,13.20
2007,07,10,00,23,13.30
2007,07,10,00,24,13.40
2007,07,10,00,25,13.40
2007,07,10,00,26,13.50
2007,07,10,00,27,13.70
2007,07,10,00,28,13.70
2007,07,10,00,29,13.80
2007,07,10,00,30,13.90
2007,07,10,00,31,13.90
2007,07,10,00,32,13.90
2007,07,10,00,33,13.90
2007,07,10,00,34,13.90
2007,07,10,00,35,13.90
2007,07,10,00,36,14.00
2007,07,10,00,37,14.10
2007,07,10,00,38,14.20
2007,07,10,00,39,14.30
2007,07,10,00,40,14.40
2007,07,10,00,41,14.40
2007,07,10,00,42,14.40
2007,07,10,00,43,14.30
2007,07,10,00,44,14.20
2007,07,10,00,45,14.20
2007,07,10,00,46,14.20
2007,07,10,00,47,14.20
2007,07,10,00,48,14.20
2007,07,10,00,49,14.40
2007,07,10,00,50,14.40
2007,07,10,00,51,14.50
2007,07,10,00,52,14.50
2007,07,10,00,53,14.50
2007,07,10,00,54,14.60
2007,07,10,00,55,14.70
2007,07,10,00,56,14.70
2007,07,10,00,57,14.70
2007,07,10,00,58,14.70
2007,07,10,00,59,14.60
2007,07,10,01,00,14.50
2007,07,10,01,01,14.40
2007,07,10,01,02,14.30
2007,07,10,01,03,14.30
2007,07,10,01,04,14.30
2007,07,10,01,05,14.20
2007,07,10,01,06,14.20
2007,07,10,01,07,14.20
2007,07,10,01,08,14.20
2007,07,10,01,09,14.10
2007,07,10,01,10,14.10
2007,07,10,01,11,14.00
2007,07,10,01,12,14.00
2007,07,10,01,13,14.00
2007,07,10,01,14,14.00
2007,07,10,01,15,14.00
2007,07,10,01,16,13.90
2007,07,10,01,17,13.90
2007,07,10,01,18,13.90
2007,07,10,01,19,13.90
2007,07,10,01,20,13.90
2007,07,10,01,21,14.00
2007,07,10,01,22,14.00
2007,07,10,01,23,14.10
2007,07,10,01,24,14.10
2007,07,10,01,25,14.10
2007,07,10,01,26,14.10
2007,07,10,01,27,14.10
2007,07,10,01,28,14.10
2007,07,10,01,29,14.10
2007,07,10,01,30,14.10
2007,07,10,01,31,14.00
2007,07,10,01,32,13.90
2007,07,10,01,33,13.90
2007,07,10,01,34,13.90
2007,07,10,01,35,13.80
2007,07,10,01,36,13.80
2007,07,10,01,37,13.70
2007,07,10,01,38,13.70
2007,07,10,01,39,13.60
2007,07,10,01,40,13.60
2007,07,10,01,41,13.60
2007,07,10,01,42,13.50
2007,07,10,01,43,13.50
2007,07,10,01,44,13.50
2007,07,10,01,45,13.60
2007,07,10,01,46,13.60
2007,07,10,01,47,13.60
2007,07,10,01,48,13.60
2007,07,10,01,49,13.60
2007,07,10,01,50,13.60
2007,07,10,01,51,13.60
2007,07,10,01,52,13.60
2007,07,10,01,53,13.50
2007,07,10,01,54,13.50
2007,07,10,01,55,13.50
2007,07,10,01,56,13.50
2007,07,10,01,57,13.50
2007,07,10,01,58,13.40
2007,07,10,01,59,13.40
2007,07,10,02,00,13.40
2007,07,10,02,01,13.40
2007,07,10,02,02,13.30
2007,07,10,02,03,13.30
2007,07,10,02,04,13.30
2007,07,10,02,05,13.30
2007,07,10,02,06,13.30
2007,07,10,02,07,13.40
2007,07,10,02,08,13.50
2007,07,10,02,09,13.50
2007,07,10,02,10,13.60
2007,07,10,02,11,13.60
2007,07,10,02,12,13.60
2007,07,10,02,13,13.50
2007,07,10,02,14,13.50
2007,07,10,02,15,13.50
2007,07,10,02,16,13.40
2007,07,10,02,17,13.40
2007,07,10,02,18,13.40
2007,07,10,02,19,13.50
2007,07,10,02,20,13.50
2007,07,10,02,21,13.50
2007,07,10,02,22,13.50
2007,07,10,02,23,13.50
2007,07,10,02,24,13.50
2007,07,10,02,25,13.50
2007,07,10,02,26,13.50
2007,07,10,02,27,13.40
2007,07,10,02,28,13.40
2007,07,10,02,29,13.40
2007,07,10,02,30,13.40
2007,07,10,02,31,13.40
2007,07,10,02,32,13.40
2007,07,10,02,33,13.40
2007,07,10,02,34,13.40
2007,07,10,02,35,13.40
2007,07,10,02,36,13.40
2007,07,10,02,37,13.40
2007,07,10,02,38,13.40
2007,07,10,02,39,13.40
2007,07,10,02,40,13.50
2007,07,10,02,41,13.60
2007,07,10,02,42,13.50
2007,07,10,02,43,13.50
2007,07,10,02,44,13.40
2007,07,10,02,45,13.30
2007,07,10,02,46,13.20
2007,07,10,02,47,13.10
2007,07,10,02,48,13.00
2007,07,10,02,49,12.90
2007,07,10,02,50,12.90
2007,07,10,02,51,12.80
2007,07,10,02,52,12.80
2007,07,10,02,53,12.80
2007,07,10,02,54,12.80
2007,07,10,02,55,12.80
2007,07,10,02,56,12.80
2007,07,10,02,57,12.80
2007,07,10,02,58,12.70
2007,07,10,02,59,12.70
2007,07,10,03,00,12.70
2007,07,10,03,01,12.70
2007,07,10,03,02,12.70
2007,07,10,03,03,12.80
2007,07,10,03,04,12.80
2007,07,10,03,05,12.80
2007,07,10,03,06,12.80
2007,07,10,03,07,12.80
2007,07,10,03,08,12.80
2007,07,10,03,09,12.80
2007,07,10,03,10,12.80
2007,07,10,03,11,12.80
2007,07,10,03,12,12.80
2007,07,10,03,13,12.80
2007,07,10,03,14,12.90
2007,07,10,03,15,12.90
2007,07,10,03,16,12.90
2007,07,10,03,17,12.90
2007,07,10,03,18,12.80
2007,07,10,03,19,12.80
2007,07,10,03,20,12.80
2007,07,10,03,21,12.80
2007,07,10,03,22,12.70
2007,07,10,03,23,12.70
2007,07,10,03,24,12.70
2007,07,10,03,25,12.60
2007,07,10,03,26,12.70
2007,07,10,03,27,12.70
2007,07,10,03,28,12.70
2007,07,10,03,29,12.70
2007,07,10,03,30,12.70
2007,07,10,03,31,12.70
2007,07,10,03,32,12.70
2007,07,10,03,33,12.70
2007,07,10,03,34,12.70
2007,07,10,03,35,12.70
2007,07,10,03,36,12.70
2007,07,10,03,37,12.60
2007,07,10,03,38,12.70
2007,07,10,03,39,12.80
2007,07,10,03,40,12.90
2007,07,10,03,41,12.90
2007,07,10,03,42,13.00
2007,07,10,03,43,13.10
2007,07,10,03,44,13.10
2007,07,10,03,45,13.10
2007,07,10,03,46,13.10
2007,07,10,03,47,13.10
2007,07,10,03,48,13.10
2007,07,10,03,49,13.10
2007,07,10,03,50,13.10
2007,07,10,03,51,13.10
2007,07,10,03,52,13.10
2007,07,10,03,53,13.20
2007,07,10,03,54,13.20
2007,07,10,03,55,13.20
2007,07,10,03,56,13.20
2007,07,10,03,57,13.20
2007,07,10,03,58,13.20
2007,07,10,03,59,13.20
2007,07,10,04,00,13.20
2007,07,10,04,01,13.30
2007,07,10,04,02,13.30
2007,07,10,04,03,13.30
2007,07,10,04,04,13.40
2007,07,10,04,05,13.40
2007,07,10,04,06,13.40
2007,07,10,04,07,13.40
2007,07,10,04,08,13.40
2007,07,10,04,09,13.30
2007,07,10,04,10,13.30
2007,07,10,04,11,13.20
2007,07,10,04,12,13.10
2007,07,10,04,13,13.00
2007,07,10,04,14,13.00
2007,07,10,04,15,13.00
2007,07,10,04,16,13.00
2007,07,10,04,17,13.00
2007,07,10,04,18,13.00
2007,07,10,04,19,13.10
2007,07,10,04,20,13.10
2007,07,10,04,21,13.20
2007,07,10,04,22,13.20
2007,07,10,04,23,13.20
2007,07,10,04,24,13.10
2007,07,10,04,25,13.00
2007,07,10,04,26,12.90
2007,07,10,04,27,12.80
2007,07,10,04,28,12.70
2007,07,10,04,29,12.70
2007,07,10,04,30,12.70
2007,07,10,04,31,12.70
2007,07,10,04,32,12.70
2007,07,10,04,33,12.70
2007,07,10,04,34,12.70
2007,07,10,04,35,12.70
2007,07,10,04,36,12.60
2007,07,10,04,37,12.60
2007,07,10,04,38,12.60
2007,07,10,04,39,12.60
2007,07,10,04,40,12.60
2007,07,10,04,41,12.70
2007,07,10,04,42,12.70
2007,07,10,04,43,12.70
2007,07,10,04,44,12.70
2007,07,10,04,45,12.70
2007,07,10,04,46,12.80
2007,07,10,04,47,12.80
2007,07,10,04,48,12.80
2007,07,10,04,49,12.80
2007,07,10,04,50,12.90
2007,07,10,04,51,13.00
2007,07,10,04,52,13.10
2007,07,10,04,53,13.20
2007,07,10,04,54,13.30
2007,07,10,04,55,13.40
2007,07,10,04,56,13.40
2007,07,10,04,57,13.50
2007,07,10,04,58,13.50
2007,07,10,04,59,13.50
2007,07,10,05,00,13.50
2007,07,10,05,01,13.50
2007,07,10,05,02,13.40
2007,07,10,05,03,13.30
2007,07,10,05,04,13.30
2007,07,10,05,05,13.30
2007,07,10,05,06,13.40
2007,07,10,05,07,13.40
2007,07,10,05,08,13.50
2007,07,10,05,09,13.70
2007,07,10,05,10,13.70
2007,07,10,05,11,13.80
2007,07,10,05,12,13.80
2007,07,10,05,13,14.00
2007,07,10,05,14,14.20
2007,07,10,05,15,14.30
2007,07,10,05,16,14.70
2007,07,10,05,17,15.00
2007,07,10,05,18,15.20
2007,07,10,05,19,15.40
2007,07,10,05,20,15.60
2007,07,10,05,21,15.70
2007,07,10,05,22,15.80
2007,07,10,05,23,15.90
2007,07,10,05,24,16.00
2007,07,10,05,25,16.00
2007,07,10,05,26,16.10
2007,07,10,05,27,16.20
2007,07,10,05,28,16.20
2007,07,10,05,29,16.20
2007,07,10,05,30,16.20
2007,07,10,05,31,16.20
2007,07,10,05,32,16.20
2007,07,10,05,33,16.20
2007,07,10,05,34,16.10
2007,07,10,05,35,15.90
2007,07,10,05,36,15.80
2007,07,10,05,37,15.60
2007,07,10,05,38,15.50
2007,07,10,05,39,15.30
2007,07,10,05,40,15.20
2007,07,10,05,41,15.00
2007,07,10,05,42,15.00
2007,07,10,05,43,14.90
2007,07,10,05,44,14.70
2007,07,10,05,45,14.60
2007,07,10,05,46,14.50
2007,07,10,05,47,14.40
2007,07,10,05,48,14.30
2007,07,10,05,49,14.20
2007,07,10,05,50,14.20
2007,07,10,05,51,14.20
2007,07,10,05,52,14.30
2007,07,10,05,53,14.50
2007,07,10,05,54,14.60
2007,07,10,05,55,14.80
2007,07,10,05,56,14.90
2007,07,10,05,57,15.00
2007,07,10,05,58,15.00
2007,07,10,05,59,15.20
2007,07,10,06,00,15.30
2007,07,10,06,01,15.40
2007,07,10,06,02,15.60
2007,07,10,06,03,15.70
2007,07,10,06,04,15.70
2007,07,10,06,05,15.80
2007,07,10,06,06,15.90
2007,07,10,06,07,16.00
2007,07,10,06,08,16.10
2007,07,10,06,09,16.10
2007,07,10,06,10,16.20
2007,07,10,06,11,16.20
2007,07,10,06,12,16.20
2007,07,10,06,13,16.30
2007,07,10,06,14,16.30
2007,07,10,06,15,16.30
2007,07,10,06,16,16.40
2007,07,10,06,17,16.50
2007,07,10,06,18,16.50
2007,07,10,06,19,16.60
2007,07,10,06,20,16.70
2007,07,10,06,21,16.70
2007,07,10,06,22,16.80
2007,07,10,06,23,16.90
2007,07,10,06,24,17.00
2007,07,10,06,25,17.10
2007,07,10,06,26,17.20
2007,07,10,06,27,17.30
2007,07,10,06,28,17.40
2007,07,10,06,29,17.50
2007,07,10,06,30,17.60
2007,07,10,06,31,17.70
2007,07,10,06,32,17.80
2007,07,10,06,33,17.80
2007,07,10,06,34,17.90
2007,07,10,06,35,18.00
2007,07,10,06,36,18.10
2007,07,10,06,37,18.20
2007,07,10,06,38,18.30
2007,07,10,06,39,18.30
2007,07,10,06,40,18.40
2007,07,10,06,41,18.40
2007,07,10,06,42,18.40
2007,07,10,06,43,18.40
2007,07,10,06,44,18.50
2007,07,10,06,45,18.50
2007,07,10,06,46,18.60
2007,07,10,06,47,18.60
2007,07,10,06,48,18.50
2007,07,10,06,49,18.50
2007,07,10,06,50,18.40
2007,07,10,06,51,18.40
2007,07,10,06,52,18.50
2007,07,10,06,53,18.60
2007,07,10,06,54,18.60
2007,07,10,06,55,18.70
2007,07,10,06,56,18.80
2007,07,10,06,57,18.80
2007,07,10,06,58,18.90
2007,07,10,06,59,19.00
2007,07,10,07,00,19.10
2007,07,10,07,01,19.20
2007,07,10,07,02,19.30
2007,07,10,07,03,19.40
2007,07,10,07,04,19.50
2007,07,10,07,05,19.50
2007,07,10,07,06,19.50
2007,07,10,07,07,19.60
2007,07,10,07,08,19.70
2007,07,10,07,09,19.70
2007,07,10,07,10,19.70
2007,07,10,07,11,19.70
2007,07,10,07,12,19.80
2007,07,10,07,13,19.90
2007,07,10,07,14,20.00
2007,07,10,07,15,20.00
2007,07,10,07,16,20.10
2007,07,10,07,17,20.20
2007,07,10,07,18,20.30
2007,07,10,07,19,20.40
2007,07,10,07,20,20.40
2007,07,10,07,21,20.50
2007,07,10,07,22,20.50
2007,07,10,07,23,20.60
2007,07,10,07,24,20.60
2007,07,10,07,25,20.60
2007,07,10,07,26,20.60
2007,07,10,07,27,20.70
2007,07,10,07,28,20.70
2007,07,10,07,29,20.80
2007,07,10,07,30,20.90
2007,07,10,07,31,21.00
2007,07,10,07,32,21.10
2007,07,10,07,33,21.20
2007,07,10,07,34,21.30
2007,07,10,07,35,21.30
2007,07,10,07,36,21.40
2007,07,10,07,37,21.50
2007,07,10,07,38,21.60
2007,07,10,07,39,21.70
2007,07,10,07,40,21.80
2007,07,10,07,41,21.80
2007,07,10,07,42,21.90
2007,07,10,07,43,22.00
2007,07,10,07,44,22.00
2007,07,10,07,45,22.10
2007,07,10,07,46,22.20
2007,07,10,07,47,22.20
2007,07,10,07,48,22.20
2007,07,10,07,49,22.20
2007,07,10,07,50,22.10
2007,07,10,07,51,22.10
2007,07,10,07,52,22.10
2007,07,10,07,53,22.10
2007,07,10,07,54,22.10
2007,07,10,07,55,22.10
2007,07,10,07,56,22.10
2007,07,10,07,57,22.20
2007,07,10,07,58,22.20
2007,07,10,07,59,22.20
2007,07,10,08,00,22.20
2007,07,10,08,01,22.30
2007,07,10,08,02,22.30
2007,07,10,08,03,22.30
2007,07,10,08,04,22.40
2007,07,10,08,05,22.40
2007,07,10,08,06,22.50
2007,07,10,08,07,22.60
2007,07,10,08,08,22.60
2007,07,10,08,09,22.60
2007,07,10,08,10,22.60
2007,07,10,08,11,22.60
2007,07,10,08,12,22.60
2007,07,10,08,13,22.60
2007,07,10,08,14,22.70
2007,07,10,08,15,22.80
2007,07,10,08,16,22.90
2007,07,10,08,17,23.00
2007,07,10,08,18,23.10
2007,07,10,08,19,23.20
2007,07,10,08,20,23.30
2007,07,10,08,21,23.40
2007,07,10,08,22,23.50
2007,07,10,08,23,23.60
2007,07,10,08,24,23.70
2007,07,10,08,25,23.70
2007,07,10,08,26,23.80
2007,07,10,08,27,24.00
2007,07,10,08,28,24.10
2007,07,10,08,29,24.10
2007,07,10,08,30,24.20
2007,07,10,08,31,24.20
2007,07,10,08,32,24.30
2007,07,10,08,33,24.30
2007,07,10,08,34,24.30
2007,07,10,08,35,24.30
2007,07,10,08,36,24.40
2007,07,10,08,37,24.40
2007,07,10,08,38,24.40
2007,07,10,08,39,24.40
2007,07,10,08,40,24.40
2007,07,10,08,41,24.50
2007,07,10,08,42,24.60
2007,07,10,08,43,24.60
2007,07,10,08,44,24.60
2007,07,10,08,45,24.60
2007,07,10,08,46,24.60
2007,07,10,08,47,24.70
2007,07,10,08,48,24.70
2007,07,10,08,49,24.70
2007,07,10,08,50,24.70
2007,07,10,08,51,24.80
2007,07,10,08,52,24.80
2007,07,10,08,53,24.90
2007,07,10,08,54,24.90
2007,07,10,08,55,24.90
2007,07,10,08,56,24.90
2007,07,10,08,57,25.00
2007,07,10,08,58,25.00
2007,07,10,08,59,25.00
2007,07,10,09,00,25.10
2007,07,10,09,01,25.20
2007,07,10,09,02,25.20
2007,07,10,09,03,25.30
2007,07,10,09,04,25.30
2007,07,10,09,05,25.30
2007,07,10,09,06,25.30
2007,07,10,09,07,25.20
2007,07,10,09,08,25.10
2007,07,10,09,09,25.00
2007,07,10,09,10,25.00
2007,07,10,09,11,25.00
2007,07,10,09,12,25.10
2007,07,10,09,13,25.10
2007,07,10,09,14,25.20
2007,07,10,09,15,25.20
2007,07,10,09,16,25.30
2007,07,10,09,17,25.40
2007,07,10,09,18,25.40
2007,07,10,09,19,25.40
2007,07,10,09,20,25.40
2007,07,10,09,21,25.40
2007,07,10,09,22,25.50
2007,07,10,09,23,25.50
2007,07,10,09,24,25.50
2007,07,10,09,25,25.40
2007,07,10,09,26,25.40
2007,07,10,09,27,25.50
2007,07,10,09,28,25.60
2007,07,10,09,29,25.70
2007,07,10,09,30,25.80
2007,07,10,09,31,25.80
2007,07,10,09,32,25.90
2007,07,10,09,33,25.90
2007,07,10,09,34,25.90
2007,07,10,09,35,25.90
2007,07,10,09,36,25.90
2007,07,10,09,37,26.00
2007,07,10,09,38,26.20
2007,07,10,09,39,26.20
2007,07,10,09,40,26.20
2007,07,10,09,41,26.30
2007,07,10,09,42,26.30
2007,07,10,09,43,26.40
2007,07,10,09,44,26.50
2007,07,10,09,45,26.50
2007,07,10,09,46,26.50
2007,07,10,09,47,26.40
2007,07,10,09,48,26.40
2007,07,10,09,49,26.40
2007,07,10,09,50,26.30
2007,07,10,09,51,26.30
2007,07,10,09,52,26.30
2007,07,10,09,53,26.30
2007,07,10,09,54,26.30
2007,07,10,09,55,26.30
2007,07,10,09,56,26.30
2007,07,10,09,57,26.40
2007,07,10,09,58,26.40
2007,07,10,09,59,26.50
2007,07,10,10,00,26.50
2007,07,10,10,01,26.50
2007,07,10,10,02,26.60
2007,07,10,10,03,26.60
2007,07,10,10,04,26.60
2007,07,10,10,05,26.60
2007,07,10,10,06,26.60
2007,07,10,10,07,26.70
2007,07,10,10,08,26.70
2007,07,10,10,09,26.80
2007,07,10,10,10,26.80
2007,07,10,10,11,26.70
2007,07,10,10,12,26.60
2007,07,10,10,13,26.60
2007,07,10,10,14,26.60
2007,07,10,10,15,26.60
2007,07,10,10,16,26.60
2007,07,10,10,17,26.60
2007,07,10,10,18,26.70
2007,07,10,10,19,26.90
2007,07,10,10,20,27.00
2007,07,10,10,21,27.00
2007,07,10,10,22,27.10
2007,07,10,10,23,27.10
2007,07,10,10,24,27.10
2007,07,10,10,25,27.20
2007,07,10,10,26,27.20
2007,07,10,10,27,27.30
2007,07,10,10,28,27.30
2007,07,10,10,29,27.30
2007,07,10,10,30,27.30
2007,07,10,10,31,27.40
2007,07,10,10,32,27.40
2007,07,10,10,33,27.30
2007,07,10,10,34,27.40
2007,07,10,10,35,27.50
2007,07,10,10,36,27.50
2007,07,10,10,37,27.50
2007,07,10,10,38,27.40
2007,07,10,10,39,27.40
2007,07,10,10,40,27.40
2007,07,10,10,41,27.30
2007,07,10,10,42,27.20
2007,07,10,10,43,27.20
2007,07,10,10,44,27.20
2007,07,10,10,45,27.30
2007,07,10,10,46,27.30
2007,07,10,10,47,27.40
2007,07,10,10,48,27.50
2007,07,10,10,49,27.60
2007,07,10,10,50,27.60
2007,07,10,10,51,27.50
2007,07,10,10,52,27.50
2007,07,10,10,53,27.50
2007,07,10,10,54,27.60
2007,07,10,10,55,27.60
2007,07,10,10,56,27.60
2007,07,10,10,57,27.70
2007,07,10,10,58,27.80
2007,07,10,10,59,27.80
2007,07,10,11,00,27.80
2007,07,10,11,01,27.70
2007,07,10,11,02,27.60
2007,07,10,11,03,27.60
2007,07,10,11,04,27.60
2007,07,10,11,05,27.60
2007,07,10,11,06,27.60
2007,07,10,11,07,27.60
2007,07,10,11,08,27.60
2007,07,10,11,09,27.60
2007,07,10,11,10,27.50
2007,07,10,11,11,27.60
2007,07,10,11,12,27.60
2007,07,10,11,13,27.70
2007,07,10,11,14,27.70
2007,07,10,11,15,27.70
2007,07,10,11,16,27.70
2007,07,10,11,17,27.80
2007,07,10,11,18,27.80
2007,07,10,11,19,27.80
2007,07,10,11,20,27.90
2007,07,10,11,21,27.80
2007,07,10,11,22,27.70
2007,07,10,11,23,27.70
2007,07,10,11,24,27.70
2007,07,10,11,25,27.70
2007,07,10,11,26,27.70
2007,07,10,11,27,27.70
2007,07,10,11,28,27.60
2007,07,10,11,29,27.50
2007,07,10,11,30,27.50
2007,07,10,11,31,27.50
2007,07,10,11,32,27.60
2007,07,10,11,33,27.70
2007,07,10,11,34,27.70
2007,07,10,11,35,27.80
2007,07,10,11,36,27.90
2007,07,10,11,37,27.90
2007,07,10,11,38,27.90
2007,07,10,11,39,27.90
2007,07,10,11,40,28.00
2007,07,10,11,41,28.00
2007,07,10,11,42,28.00
2007,07,10,11,43,28.10
2007,07,10,11,44,28.10
2007,07,10,11,45,28.20
2007,07,10,11,46,28.10
2007,07,10,11,47,28.10
2007,07,10,11,48,28.20
2007,07,10,11,49,28.30
2007,07,10,11,50,28.30
2007,07,10,11,51,28.30
2007,07,10,11,52,28.20
2007,07,10,11,53,28.10
2007,07,10,11,54,28.10
2007,07,10,11,55,28.20
2007,07,10,11,56,28.30
2007,07,10,11,57,28.40
2007,07,10,11,58,28.30
2007,07,10,11,59,28.20
2007,07,10,12,00,28.10
2007,07,10,12,01,28.10
2007,07,10,12,02,28.20
2007,07,10,12,03,28.30
2007,07,10,12,04,28.30
2007,07,10,12,05,28.30
2007,07,10,12,06,28.30
2007,07,10,12,07,28.30
2007,07,10,12,08,28.30
2007,07,10,12,09,28.30
2007,07,10,12,10,28.20
2007,07,10,12,11,28.10
2007,07,10,12,12,28.00
2007,07,10,12,13,27.90
2007,07,10,12,14,27.90
2007,07,10,12,15,27.80
2007,07,10,12,16,27.80
2007,07,10,12,17,27.80
2007,07,10,12,18,27.60
2007,07,10,12,19,27.20
2007,07,10,12,20,26.90
2007,07,10,12,21,26.80
2007,07,10,12,22,26.80
2007,07,10,12,23,26.70
2007,07,10,12,24,26.60
2007,07,10,12,25,26.60
2007,07,10,12,26,26.70
2007,07,10,12,27,26.80
2007,07,10,12,28,26.90
2007,07,10,12,29,27.00
2007,07,10,12,30,27.10
2007,07,10,12,31,27.10
2007,07,10,12,32,27.00
2007,07,10,12,33,27.00
2007,07,10,12,34,26.80
2007,07,10,12,35,26.80
2007,07,10,12,36,26.60
2007,07,10,12,37,26.50
2007,07,10,12,38,26.40
2007,07,10,12,39,26.20
2007,07,10,12,40,26.00
2007,07,10,12,41,25.80
2007,07,10,12,42,25.60
2007,07,10,12,43,25.60
2007,07,10,12,44,25.60
2007,07,10,12,45,25.60
2007,07,10,12,46,25.60
2007,07,10,12,47,25.70
2007,07,10,12,48,25.80
2007,07,10,12,49,25.90
2007,07,10,12,50,25.90
2007,07,10,12,51,25.90
2007,07,10,12,52,26.10
2007,07,10,12,53,26.20
2007,07,10,12,54,26.20
2007,07,10,12,55,26.20
2007,07,10,12,56,26.20
2007,07,10,12,57,26.20
2007,07,10,12,58,26.20
2007,07,10,12,59,26.20
2007,07,10,13,00,26.40
2007,07,10,13,01,26.50
2007,07,10,13,02,26.60
2007,07,10,13,03,26.70
2007,07,10,13,04,26.80
2007,07,10,13,05,26.70
2007,07,10,13,06,26.70
2007,07,10,13,07,26.60
2007,07,10,13,08,26.60
2007,07,10,13,09,26.70
2007,07,10,13,10,26.80
2007,07,10,13,11,26.90
2007,07,10,13,12,26.90
2007,07,10,13,13,26.80
2007,07,10,13,14,26.80
2007,07,10,13,15,26.80
2007,07,10,13,16,26.80
2007,07,10,13,17,26.70
2007,07,10,13,18,26.70
2007,07,10,13,19,26.60
2007,07,10,13,20,26.60
2007,07,10,13,21,26.60
2007,07,10,13,22,26.60
2007,07,10,13,23,26.70
2007,07,10,13,24,26.70
2007,07,10,13,25,26.70
2007,07,10,13,26,26.80
2007,07,10,13,27,26.80
2007,07,10,13,28,26.80
2007,07,10,13,29,26.90
2007,07,10,13,30,26.90
2007,07,10,13,31,26.90
2007,07,10,13,32,26.80
2007,07,10,13,33,26.80
2007,07,10,13,34,26.90
2007,07,10,13,35,27.10
2007,07,10,13,36,27.30
2007,07,10,13,37,27.40
2007,07,10,13,38,27.30
2007,07,10,13,39,27.30
2007,07,10,13,40,27.30
2007,07,10,13,41,27.30
2007,07,10,13,42,27.30
2007,07,10,13,43,27.40
2007,07,10,13,44,27.40
2007,07,10,13,45,27.40
2007,07,10,13,46,27.30
2007,07,10,13,47,27.20
2007,07,10,13,48,27.10
2007,07,10,13,49,27.00
2007,07,10,13,50,27.00
2007,07,10,13,51,26.80
2007,07,10,13,52,26.80
2007,07,10,13,53,26.70
2007,07,10,13,54,26.60
2007,07,10,13,55,26.50
2007,07,10,13,56,26.40
2007,07,10,13,57,26.30
2007,07,10,13,58,26.30
2007,07,10,13,59,26.40
2007,07,10,14,00,26.40
2007,07,10,14,01,26.50
2007,07,10,14,02,26.50
2007,07,10,14,03,26.60
2007,07,10,14,04,26.70
2007,07,10,14,05,26.80
2007,07,10,14,06,26.80
2007,07,10,14,07,26.80
2007,07,10,14,08,26.80
2007,07,10,14,09,26.90
2007,07,10,14,10,27.00
2007,07,10,14,11,27.10
2007,07,10,14,12,27.20
2007,07,10,14,13,27.30
2007,07,10,14,14,27.30
2007,07,10,14,15,27.30
2007,07,10,14,16,27.30
2007,07,10,14,17,27.30
2007,07,10,14,18,27.30
2007,07,10,14,19,27.40
2007,07,10,14,20,27.50
2007,07,10,14,21,27.60
2007,07,10,14,22,27.70
2007,07,10,14,23,27.80
2007,07,10,14,24,27.80
2007,07,10,14,25,27.80
2007,07,10,14,26,27.80
2007,07,10,14,27,27.80
2007,07,10,14,28,27.80
2007,07,10,14,29,27.80
2007,07,10,14,30,27.80
2007,07,10,14,31,27.80
2007,07,10,14,32,27.80
2007,07,10,14,33,27.80
2007,07,10,14,34,27.80
2007,07,10,14,35,27.80
2007,07,10,14,36,27.90
2007,07,10,14,37,27.90
2007,07,10,14,38,27.90
2007,07,10,14,39,27.80
2007,07,10,14,40,27.80
2007,07,10,14,41,27.90
2007,07,10,14,42,28.00
2007,07,10,14,43,28.10
2007,07,10,14,44,28.20
2007,07,10,14,45,28.30
2007,07,10,14,46,28.40
2007,07,10,14,47,28.40
2007,07,10,14,48,28.40
2007,07,10,14,49,28.50
2007,07,10,14,50,28.60
2007,07,10,14,51,28.70
2007,07,10,14,52,28.80
2007,07,10,14,53,28.90
2007,07,10,14,54,29.00
2007,07,10,14,55,29.10
2007,07,10,14,56,29.10
2007,07,10,14,57,29.10
2007,07,10,14,58,29.20
2007,07,10,14,59,29.20
2007,07,10,15,00,29.30
2007,07,10,15,01,29.30
2007,07,10,15,02,29.20
2007,07,10,15,03,29.10
2007,07,10,15,04,29.00
2007,07,10,15,05,29.10
2007,07,10,15,06,29.00
2007,07,10,15,07,28.90
2007,07,10,15,08,28.90
2007,07,10,15,09,28.80
2007,07,10,15,10,28.80
2007,07,10,15,11,29.00
2007,07,10,15,12,29.10
2007,07,10,15,13,29.20
2007,07,10,15,14,29.30
2007,07,10,15,15,29.40
2007,07,10,15,16,29.40
2007,07,10,15,17,29.30
2007,07,10,15,18,29.30
2007,07,10,15,19,29.20
2007,07,10,15,20,29.10
2007,07,10,15,21,29.00
2007,07,10,15,22,28.90
2007,07,10,15,23,28.80
2007,07,10,15,24,28.70
2007,07,10,15,25,28.60
2007,07,10,15,26,28.50
2007,07,10,15,27,28.40
2007,07,10,15,28,28.30
2007,07,10,15,29,28.20
2007,07,10,15,30,28.10
2007,07,10,15,31,28.10
2007,07,10,15,32,28.10
2007,07,10,15,33,28.20
2007,07,10,15,34,28.10
2007,07,10,15,35,28.10
2007,07,10,15,36,28.00
2007,07,10,15,37,27.90
2007,07,10,15,38,27.90
2007,07,10,15,39,28.00
2007,07,10,15,40,28.10
2007,07,10,15,41,28.20
2007,07,10,15,42,28.40
2007,07,10,15,43,28.40
2007,07,10,15,44,28.50
2007,07,10,15,45,28.40
2007,07,10,15,46,28.30
2007,07,10,15,47,28.20
2007,07,10,15,48,28.10
2007,07,10,15,49,28.10
2007,07,10,15,50,28.10
2007,07,10,15,51,28.10
2007,07,10,15,52,28.10
2007,07,10,15,53,28.00
2007,07,10,15,54,27.90
2007,07,10,15,55,27.80
2007,07,10,15,56,27.70
2007,07,10,15,57,27.70
2007,07,10,15,58,27.70
2007,07,10,15,59,27.70
2007,07,10,16,00,27.60
2007,07,10,16,01,27.60
2007,07,10,16,02,27.50
2007,07,10,16,03,27.40
2007,07,10,16,04,27.30
2007,07,10,16,05,27.20
2007,07,10,16,06,27.20
2007,07,10,16,07,27.30
2007,07,10,16,08,27.30
2007,07,10,16,09,27.30
2007,07,10,16,10,27.30
2007,07,10,16,11,27.20
2007,07,10,16,12,27.30
2007,07,10,16,13,27.30
2007,07,10,16,14,27.40
2007,07,10,16,15,27.50
2007,07,10,16,16,27.50
2007,07,10,16,17,27.60
2007,07,10,16,18,27.60
2007,07,10,16,19,27.70
2007,07,10,16,20,27.70
2007,07,10,16,21,27.70
2007,07,10,16,22,27.80
2007,07,10,16,23,27.80
2007,07,10,16,24,27.80
2007,07,10,16,25,28.00
2007,07,10,16,26,28.10
2007,07,10,16,27,28.20
2007,07,10,16,28,28.30
2007,07,10,16,29,28.40
2007,07,10,16,30,28.40
2007,07,10,16,31,28.50
2007,07,10,16,32,28.60
2007,07,10,16,33,28.70
2007,07,10,16,34,28.80
2007,07,10,16,35,28.80
2007,07,10,16,36,28.80
2007,07,10,16,37,28.80
2007,07,10,16,38,28.80
2007,07,10,16,39,28.90
2007,07,10,16,40,28.80
2007,07,10,16,41,28.80
2007,07,10,16,42,28.70
2007,07,10,16,43,28.70
2007,07,10,16,44,28.60
2007,07,10,16,45,28.60
2007,07,10,16,46,28.60
2007,07,10,16,47,28.60
2007,07,10,16,48,28.70
2007,07,10,16,49,28.60
2007,07,10,16,50,28.60
2007,07,10,16,51,28.60
2007,07,10,16,52,28.70
2007,07,10,16,53,28.70
2007,07,10,16,54,28.80
2007,07,10,16,55,28.80
2007,07,10,16,56,28.70
2007,07,10,16,57,28.70
2007,07,10,16,58,28.70
2007,07,10,16,59,28.60
2007,07,10,17,00,28.50
2007,07,10,17,01,28.50
2007,07,10,17,02,28.40
2007,07,10,17,03,28.40
2007,07,10,17,04,28.30
2007,07,10,17,05,28.30
2007,07,10,17,06,28.30
2007,07,10,17,07,28.20
2007,07,10,17,08,28.10
2007,07,10,17,09,28.10
2007,07,10,17,10,28.00
2007,07,10,17,11,27.90
2007,07,10,17,12,27.90
2007,07,10,17,13,28.00
2007,07,10,17,14,28.00
2007,07,10,17,15,28.10
2007,07,10,17,16,28.20
2007,07,10,17,17,28.20
2007,07,10,17,18,28.30
2007,07,10,17,19,28.30